Flag for Mozambique Weather past 2 weeks in Nampula, Mozambique

Now
84 °F

Sunny.


Feels Like: 83 °F
Forecast: 59 / 89 °F
Wind: 6 mph from East

Location: Nampula Airport

Current Time: Aug 28, 2014 at 4:10:54 PM

Latest Report: Aug 28, 2014 at 3:00 PM


Visibility: 10 mi

Pressure: 29.98 "Hg

Humidity: 40%

Dew point: 57 °F

Location of NampulaLocation

Historic Weather in Nampula — Graph

°F

Nampula temperature yesterday

Maximum temperature yesterday: 81 °F (at 2:00 PM)
Minimum temperature yesterday: 61 °F (at 5:00 PM)
Average temperature yesterday: 70 °F

Past Weeks' High & Low Weather Summary

 TemperatureHumidityPressure
High93 °F (Aug 23, 3:00 PM)100% (Aug 14, 5:00 AM)30.24 "Hg (Aug 14, 5:00 AM)
Low61 °F (Aug 26, 3:00 AM)23% (Aug 25, 5:00 PM)29.83 "Hg (Aug 23, 12:00 AM)
Average74 °F67%30.08 "Hg
* Reported Aug 13 3:00 PM — Aug 28 3:00 PM, Nampula, Weather by CustomWeather, © 2014

Note: Actual official high and low records may vary slightly from our data, if they occured in-between our weather recording intervals... More about our weather records

Advertising

Nampula weather history for previous 24 hours

 ConditionsComfort  
Time TempWeatherWind HumidityBarometerVisibility
3:00 PM
Aug 28
84 °FSunny.6 mph40%29.98 "Hg10 mi
2:00 PM84 °FSunny.2 mph40%29.98 "Hg10 mi
1:00 PM82 °FSunny.2 mph35%29.98 "Hg10 mi
12:00 PM79 °FSunny.3 mph48%30.01 "Hg10 mi
11:00 AM75 °FSunny.5 mph47%30.04 "Hg10 mi
10:00 AM73 °FSunny.2 mph53%30.07 "Hg10 mi
9:00 AM70 °FSunny.6 mph60%30.07 "Hg10 mi
8:00 AM66 °FSunny.6 mph83%30.07 "Hg10 mi
7:00 AM63 °FFog.5 mph83%30.04 "Hg4 mi
5:00 AM61 °FClear.3 mph83%30.04 "Hg10 mi
4:00 AM61 °FClear.3 mph83%30.01 "Hg10 mi
3:00 AM61 °FClear.3 mph83%30.01 "Hg10 mi
2:00 AM64 °FClear.3 mph83%30.04 "Hg10 mi
12:00 AM66 °FClear.5 mph73%30.07 "Hg10 mi
10:00 PM
Aug 27
66 °FClear.5 mph68%30.07 "Hg10 mi
9:00 PM66 °FClear.8 mph64%30.07 "Hg10 mi
8:00 PM68 °FClear.9 mph64%30.04 "Hg10 mi
7:00 PM75 °FClear.8 mph50%30.04 "Hg10 mi
6:00 PM75 °FClear.5 mph50%30.01 "Hg10 mi
5:00 PM61 °FSunny.8 mph77%30.01 "Hg10 mi
4:00 PM81 °FSunny.7 mph42%30.01 "Hg10 mi
Weather by CustomWeather, © 2014

See weather overviewHow to use our weather pages